Location: Cheching
(60.0667°N, 164.2167°W)
Time: 10:52:10
(UTC+00:00)

NOAA 19 - Pass Details

Date: 25 January 2021
Orbit: 840 x 862 km, 99.2° (Epoch: 26 February)

Event Time Altitude Azimuth Distance (km) Brightness Sun altitude
Rises 06:04:46 0° 208° (SSW) 3,429 8.7 -23.2°
Reaches altitude 10° 06:07:43 10° 224° (SW) 2,495 8.2 -23.6°
Maximum altitude 06:11:53 21° 273° (W) 1,820 7.7 -24.1°
Drops below altitude 10° 06:16:03 10° 322° (NW) 2,498 8.2 -24.6°
Sets 06:19:02 0° 338° (NNW) 3,435 8.7 -25.0°
